UKV907 LOWI-EGPH

Flight info

Callsign UKV907
Flight time 2h 8m
Altitude 36000
Route KOGOL M726 KEMES DCT GASKA DCT MAPOX DCT BIGGE DCT TOPPA DCT AGPED
Aircraft B738/M-SDE2E3FGHIRWXY/LB1

Departure

Time 2026-05-04 07:49
Airport Innsbruck Airport (LOWI)

Arrival

Time 2026-05-04 09:57
Airport Edinburgh Airport (EGPH)
Time Latitude Longitude Altitude Speed Heading
2026-05-04 07:16 47.25834 11.35109 1898 ft 0 kts 170°
2026-05-04 07:35 47.25838 11.35108 1888 ft 3 kts 170°
2026-05-04 07:35 47.25861 11.35102 1893 ft 4 kts 159°
2026-05-04 07:36 47.25878 11.35081 1887 ft 4 kts 98°
2026-05-04 07:36 47.25877 11.35049 1888 ft 1 kts 81°
2026-05-04 07:38 47.25876 11.35043 1898 ft 0 kts 81°
2026-05-04 07:41 47.25879 11.35066 1893 ft 7 kts 81°
2026-05-04 07:41 47.25890 11.35167 1898 ft 11 kts 80°
2026-05-04 07:42 47.25906 11.35273 1898 ft 10 kts 59°
2026-05-04 07:42 47.25960 11.35282 1898 ft 2 kts 350°
2026-05-04 07:42 47.25964 11.35281 1898 ft 0 kts 350°
2026-05-04 07:43 47.25987 11.35275 1891 ft 8 kts 350°
2026-05-04 07:43 47.26045 11.35260 1897 ft 8 kts 350°
2026-05-04 07:44 47.26102 11.35256 1902 ft 8 kts 27°
2026-05-04 07:44 47.26122 11.35334 1902 ft 9 kts 80°
2026-05-04 07:44 47.26132 11.35421 1896 ft 9 kts 81°
2026-05-04 07:44 47.26143 11.35532 1900 ft 11 kts 82°
2026-05-04 07:45 47.26119 11.35638 1897 ft 11 kts 110°
2026-05-04 07:45 47.26136 11.35696 1888 ft 1 kts
2026-05-04 07:45 47.26146 11.35694 1901 ft 2 kts 348°
2026-05-04 07:45 47.26155 11.35675 1896 ft 3 kts 289°
2026-05-04 07:46 47.26155 11.35653 1896 ft 0 kts 263°
2026-05-04 07:47 47.26124 11.35360 1898 ft 69 kts 261°
2026-05-04 07:47 47.26005 11.34287 1898 ft 141 kts 261°
2026-05-04 07:49 47.23335 11.24421 7295 ft 184 kts 134°
2026-05-04 07:49 47.22868 11.26182 7965 ft 194 kts 94°
2026-05-04 07:49 47.23031 11.28186 8573 ft 203 kts 73°
2026-05-04 07:50 47.23511 11.30124 9292 ft 205 kts 73°
2026-05-04 07:50 47.23994 11.32118 9943 ft 208 kts 73°
2026-05-04 07:50 47.24472 11.34142 10480 ft 210 kts 73°
2026-05-04 07:50 47.24944 11.36196 10925 ft 214 kts 74°
2026-05-04 07:51 47.25423 11.38322 11233 ft 228 kts 74°
2026-05-04 07:51 47.25931 11.40636 11408 ft 248 kts 74°
2026-05-04 07:51 47.26481 11.43159 11577 ft 269 kts 74°
2026-05-04 07:51 47.27069 11.45861 11868 ft 283 kts 74°
2026-05-04 07:52 47.27683 11.48685 12219 ft 301 kts 73°
2026-05-04 07:52 47.28346 11.51749 12406 ft 325 kts 73°
2026-05-04 07:52 47.29058 11.55036 12592 ft 350 kts 73°
2026-05-04 07:52 47.29819 11.58556 12883 ft 368 kts 73°
2026-05-04 07:53 47.30603 11.62190 13492 ft 375 kts 73°
2026-05-04 07:54 47.42532 11.81866 17979 ft 400 kts 358°
2026-05-04 07:55 47.45217 11.81240 18547 ft 399 kts 338°
2026-05-04 07:55 47.47670 11.79235 19117 ft 396 kts 318°
2026-05-04 07:55 47.49498 11.76292 19681 ft 393 kts 300°
2026-05-04 07:55 47.50831 11.72761 20236 ft 395 kts 295°
2026-05-04 07:56 47.52076 11.69129 20744 ft 398 kts 295°
2026-05-04 07:56 47.53323 11.65450 21286 ft 401 kts 295°
2026-05-04 07:56 47.54585 11.61756 21798 ft 404 kts 295°
2026-05-04 07:56 47.55872 11.58038 22306 ft 406 kts 296°
2026-05-04 07:57 47.57181 11.54303 22809 ft 410 kts 296°
2026-05-04 07:57 47.58499 11.50552 23315 ft 412 kts 296°
2026-05-04 07:57 47.59829 11.46767 23760 ft 415 kts 297°
2026-05-04 07:57 47.61504 11.43281 24144 ft 420 kts 314°
2026-05-04 07:58 47.63866 11.40730 24576 ft 423 kts 331°
2026-05-04 07:58 47.66648 11.39262 24981 ft 429 kts 348°
2026-05-04 07:58 47.69623 11.38761 25371 ft 432 kts 353°
2026-05-04 07:58 47.72638 11.38422 25718 ft 436 kts 354°
2026-05-04 07:59 47.75672 11.38095 26063 ft 439 kts 353°
2026-05-04 07:59 47.78729 11.37733 26430 ft 441 kts 353°
2026-05-04 07:59 47.81797 11.37330 26779 ft 444 kts 352°
2026-05-04 07:59 47.84877 11.36907 27127 ft 446 kts 352°
2026-05-04 08:00 47.87982 11.36516 27473 ft 449 kts 353°
2026-05-04 08:00 47.91112 11.36242 27810 ft 451 kts 354°
2026-05-04 08:00 47.94219 11.36016 28128 ft 454 kts 354°
2026-05-04 08:02 48.16590 11.33151 30222 ft 466 kts 348°
2026-05-04 08:02 48.19799 11.32477 30573 ft 465 kts 349°
2026-05-04 08:02 48.22996 11.31838 30965 ft 463 kts 349°
2026-05-04 08:03 48.26185 11.31216 31320 ft 461 kts 349°
2026-05-04 08:03 48.29335 11.30659 31625 ft 462 kts 350°
2026-05-04 08:03 48.32529 11.30158 31921 ft 462 kts 351°
2026-05-04 08:03 48.35723 11.29680 32283 ft 460 kts 351°
2026-05-04 08:04 48.38907 11.29204 32624 ft 459 kts 350°
2026-05-04 08:04 48.42077 11.28722 32945 ft 458 kts 350°
2026-05-04 08:04 48.45248 11.28230 33247 ft 457 kts 350°
2026-05-04 08:04 48.48416 11.27733 33582 ft 456 kts 350°
2026-05-04 08:05 48.51564 11.27235 33930 ft 455 kts 350°
2026-05-04 08:05 48.54710 11.26737 34202 ft 454 kts 350°
2026-05-04 08:05 48.57855 11.26238 34446 ft 454 kts 350°
2026-05-04 08:05 48.60999 11.25740 34668 ft 454 kts 350°
2026-05-04 08:06 48.64144 11.25241 34907 ft 454 kts 350°
2026-05-04 08:06 48.67280 11.24737 35143 ft 453 kts 350°
2026-05-04 08:06 48.70413 11.24223 35363 ft 453 kts 350°
2026-05-04 08:06 48.73553 11.23705 35577 ft 453 kts 350°
2026-05-04 08:08 48.94581 11.21833 36044 ft 456 kts 358°
2026-05-04 08:08 48.97752 11.21918 36042 ft 455 kts 357°
2026-05-04 08:11 49.26094 11.22136 36043 ft 454 kts 357°
2026-05-04 08:11 49.35599 11.22225 36050 ft 456 kts 357°
2026-05-04 08:12 49.41949 11.22283 36053 ft 458 kts 357°
2026-05-04 08:12 49.48338 11.22340 36051 ft 459 kts 357°
2026-05-04 08:13 49.54616 11.21262 36058 ft 451 kts 338°
2026-05-04 08:13 49.57496 11.19430 36046 ft 446 kts 327°
2026-05-04 08:13 49.60069 11.16830 36056 ft 441 kts 319°
2026-05-04 08:14 49.64946 11.11077 36051 ft 442 kts 318°
2026-05-04 08:16 49.84558 10.88046 36039 ft 443 kts 319°
2026-05-04 08:16 49.89470 10.82286 36034 ft 443 kts 319°
2026-05-04 08:17 49.94376 10.76517 36038 ft 442 kts 318°
2026-05-04 08:17 49.99271 10.70744 36036 ft 441 kts 318°
2026-05-04 08:19 50.18708 10.47672 36042 ft 439 kts 318°
2026-05-04 08:20 50.23588 10.41841 36034 ft 439 kts 318°
2026-05-04 08:20 50.28367 10.36114 36030 ft 439 kts 317°
2026-05-04 08:21 50.33239 10.30264 36032 ft 438 kts 317°
2026-05-04 08:21 50.37625 10.23774 36036 ft 431 kts 306°
2026-05-04 08:22 50.41503 10.16594 36022 ft 431 kts 305°
2026-05-04 08:24 50.57056 9.87788 36026 ft 434 kts 306°
2026-05-04 08:24 50.60968 9.80545 36027 ft 435 kts 306°
2026-05-04 08:25 50.64886 9.73269 36023 ft 435 kts 306°
2026-05-04 08:25 50.68782 9.66013 36023 ft 435 kts 306°
2026-05-04 08:27 50.84352 9.36804 36017 ft 433 kts 305°
2026-05-04 08:28 50.88213 9.29509 36016 ft 432 kts 305°
2026-05-04 08:28 50.92066 9.22209 36019 ft 431 kts 305°
2026-05-04 08:29 50.95912 9.14900 36022 ft 431 kts 304°
2026-05-04 08:31 51.11203 8.85637 36007 ft 431 kts 304°
2026-05-04 08:33 51.26316 8.55835 36006 ft 433 kts 303°
2026-05-04 08:35 51.40993 8.25376 36001 ft 432 kts 301°
2026-05-04 08:35 51.44564 8.17633 35999 ft 432 kts 301°
2026-05-04 08:37 51.57100 7.90426 36001 ft 432 kts 301°
2026-05-04 08:38 51.60666 7.82637 35996 ft 433 kts 301°
2026-05-04 08:38 51.64209 7.74877 35999 ft 433 kts 300°
2026-05-04 08:40 51.78425 7.43497 36001 ft 433 kts 300°
2026-05-04 08:41 51.81974 7.35605 35990 ft 433 kts 300°
2026-05-04 08:41 51.85508 7.27721 35992 ft 433 kts 300°
2026-05-04 08:42 51.89035 7.19828 35996 ft 433 kts 300°
2026-05-04 08:42 51.92557 7.11922 35990 ft 432 kts 300°
2026-05-04 08:43 51.96067 7.04020 35991 ft 432 kts 300°
2026-05-04 08:43 51.99570 6.96109 35987 ft 431 kts 300°
2026-05-04 08:44 52.03065 6.88191 35988 ft 431 kts 300°
2026-05-04 08:46 52.16938 6.56516 35993 ft 431 kts 300°
2026-05-04 08:46 52.20405 6.48538 35990 ft 431 kts 300°
2026-05-04 08:47 52.23875 6.40531 35985 ft 432 kts 300°
2026-05-04 08:47 52.27341 6.32506 35988 ft 432 kts 300°
2026-05-04 08:48 52.30776 6.24529 35991 ft 432 kts 300°
2026-05-04 08:48 52.34232 6.16478 35987 ft 432 kts 300°
2026-05-04 08:49 52.37683 6.08414 35984 ft 432 kts 300°
2026-05-04 08:50 52.49701 5.80127 35996 ft 431 kts 300°
2026-05-04 08:51 52.53117 5.72029 35991 ft 430 kts 300°
2026-05-04 08:51 52.56516 5.63946 35985 ft 430 kts 300°
2026-05-04 08:52 52.59907 5.55858 35999 ft 429 kts 300°
2026-05-04 08:52 52.63283 5.47778 35987 ft 428 kts 300°
2026-05-04 08:54 52.76688 5.15442 35991 ft 427 kts 300°
2026-05-04 08:55 52.79466 5.08689 35994 ft 428 kts 300°
2026-05-04 08:55 52.82809 5.00538 35996 ft 428 kts 300°
2026-05-04 09:01 53.17947 4.13247 36010 ft 438 kts 300°
2026-05-04 09:01 53.21306 4.04743 36010 ft 439 kts 300°
2026-05-04 09:02 53.24662 3.96216 36006 ft 439 kts 300°
2026-05-04 09:02 53.28010 3.87684 36004 ft 439 kts 300°
2026-05-04 09:03 53.31351 3.79138 36007 ft 439 kts 300°
2026-05-04 09:03 53.34687 3.70577 36007 ft 439 kts 300°
2026-05-04 09:04 53.38010 3.62019 36009 ft 438 kts 300°
2026-05-04 09:04 53.41306 3.53432 36008 ft 437 kts 299°
2026-05-04 09:05 53.44382 3.44656 36011 ft 436 kts 297°
2026-05-04 09:05 53.47391 3.35810 36012 ft 436 kts 297°
2026-05-04 09:06 53.50405 3.26986 36008 ft 436 kts 297°
2026-05-04 09:08 53.62511 2.91586 36009 ft 438 kts 298°
2026-05-04 09:08 53.65535 2.82669 36009 ft 439 kts 298°
2026-05-04 09:09 53.68564 2.73705 36013 ft 440 kts 298°
2026-05-04 09:09 53.71586 2.64729 36017 ft 440 kts 298°
2026-05-04 09:10 53.74609 2.55716 36017 ft 441 kts 298°
2026-05-04 09:10 53.77628 2.46683 36021 ft 442 kts 298°
2026-05-04 09:11 53.80624 2.37685 36019 ft 442 kts 298°
2026-05-04 09:11 53.83632 2.28619 36034 ft 442 kts 298°
2026-05-04 09:12 53.86637 2.19528 36040 ft 442 kts 298°
2026-05-04 09:14 53.98579 1.83058 36048 ft 442 kts 298°
2026-05-04 09:14 54.01547 1.73913 36054 ft 442 kts 298°
2026-05-04 09:15 54.04504 1.64762 36048 ft 442 kts 298°
2026-05-04 09:15 54.07454 1.55597 36051 ft 441 kts 298°
2026-05-04 09:17 54.20633 1.14233 36062 ft 442 kts 298°
2026-05-04 09:18 54.23549 1.04985 36062 ft 442 kts 298°
2026-05-04 09:18 54.26460 0.95715 36067 ft 442 kts 299°
2026-05-04 09:19 54.29365 0.86430 36066 ft 443 kts 299°
2026-05-04 09:19 54.32268 0.77118 36071 ft 444 kts 299°
2026-05-04 09:20 54.35171 0.67770 36070 ft 444 kts 299°
2026-05-04 09:20 54.38051 0.58454 36067 ft 445 kts 299°
2026-05-04 09:21 54.40952 0.49037 36071 ft 446 kts 299°
2026-05-04 09:21 54.43849 0.39597 36071 ft 447 kts 299°
2026-05-04 09:22 54.46744 0.30121 36069 ft 448 kts 299°
2026-05-04 09:22 54.49638 0.20614 36072 ft 449 kts 299°
2026-05-04 09:23 54.52530 0.11074 36067 ft 449 kts 299°
2026-05-04 09:23 54.55415 0.01521 36074 ft 450 kts 299°
2026-05-04 09:25 54.66873 -0.36813 36074 ft 449 kts 299°
2026-05-04 09:26 54.69717 -0.46423 36066 ft 449 kts 298°
2026-05-04 09:26 54.72548 -0.56030 36074 ft 448 kts 298°
2026-05-04 09:27 54.75366 -0.65630 36075 ft 447 kts 298°
2026-05-04 09:27 54.78172 -0.75231 36073 ft 446 kts 298°
2026-05-04 09:28 54.80965 -0.84825 36071 ft 445 kts 298°
2026-05-04 09:28 54.83745 -0.94413 36072 ft 445 kts 298°
2026-05-04 09:29 54.85113 -0.99145 35939 ft 447 kts 298°
2026-05-04 09:29 54.86518 -1.04015 35362 ft 451 kts 299°
2026-05-04 09:29 54.87915 -1.08869 34752 ft 450 kts 300°
2026-05-04 09:29 54.89306 -1.13715 34250 ft 447 kts 300°
2026-05-04 09:30 54.90685 -1.18529 33753 ft 443 kts 300°
2026-05-04 09:30 54.92049 -1.23300 33245 ft 439 kts 300°
2026-05-04 09:30 54.93399 -1.28028 32759 ft 434 kts 300°
2026-05-04 09:30 54.94736 -1.32722 32317 ft 430 kts 300°
2026-05-04 09:31 54.96053 -1.37357 31864 ft 426 kts 300°
2026-05-04 09:31 54.97358 -1.41955 31418 ft 422 kts 300°
2026-05-04 09:31 54.98649 -1.46510 30982 ft 418 kts 300°
2026-05-04 09:31 54.99928 -1.51035 30545 ft 414 kts 300°
2026-05-04 09:32 55.01192 -1.55516 30112 ft 411 kts 300°
2026-05-04 09:32 55.02450 -1.59982 29606 ft 408 kts 299°
2026-05-04 09:34 55.10912 -1.90249 26467 ft 386 kts 298°
2026-05-04 09:34 55.12063 -1.94397 26050 ft 384 kts 298°
2026-05-04 09:34 55.13297 -1.98523 25539 ft 383 kts 301°
2026-05-04 09:34 55.14616 -2.02555 25031 ft 382 kts 302°
2026-05-04 09:35 55.15961 -2.06553 24522 ft 381 kts 302°
2026-05-04 09:35 55.17308 -2.10550 24017 ft 381 kts 302°
2026-05-04 09:35 55.18647 -2.14550 23451 ft 381 kts 302°
2026-05-04 09:35 55.19980 -2.18565 22858 ft 380 kts 301°
2026-05-04 09:37 55.28989 -2.46173 19298 ft 366 kts 300°
2026-05-04 09:37 55.30241 -2.50042 18813 ft 364 kts 300°
2026-05-04 09:38 55.31487 -2.53898 18321 ft 362 kts 299°
2026-05-04 09:38 55.32712 -2.57697 17771 ft 361 kts 299°
2026-05-04 09:38 55.33944 -2.61520 17243 ft 359 kts 299°
2026-05-04 09:38 55.35167 -2.65324 16749 ft 356 kts 299°
2026-05-04 09:39 55.36381 -2.69107 16255 ft 353 kts 299°
2026-05-04 09:39 55.37584 -2.72859 15777 ft 351 kts 299°
2026-05-04 09:39 55.38777 -2.76583 15306 ft 348 kts 299°
2026-05-04 09:39 55.39960 -2.80286 14828 ft 346 kts 299°
2026-05-04 09:40 55.41135 -2.83969 14375 ft 344 kts 299°
2026-05-04 09:40 55.42302 -2.87629 13910 ft 342 kts 298°
2026-05-04 09:40 55.43464 -2.91280 13382 ft 340 kts 298°
2026-05-04 09:40 55.44612 -2.94895 12900 ft 338 kts 298°
2026-05-04 09:41 55.45969 -2.98240 12414 ft 336 kts 315°
2026-05-04 09:42 55.60186 -3.07434 9949 ft 308 kts 341°
2026-05-04 09:43 55.62188 -3.08537 9872 ft 296 kts 340°
2026-05-04 09:43 55.64122 -3.09610 9761 ft 286 kts 340°
2026-05-04 09:43 55.65983 -3.10646 9670 ft 276 kts 340°
2026-05-04 09:43 55.67786 -3.11651 9523 ft 268 kts 340°
2026-05-04 09:44 55.69544 -3.12632 9332 ft 263 kts 340°
2026-05-04 09:44 55.71313 -3.13394 9049 ft 264 kts 356°
2026-05-04 09:44 55.73086 -3.12732 8898 ft 263 kts 24°
2026-05-04 09:46 55.82720 -2.97816 7055 ft 260 kts 39°
2026-05-04 09:46 55.84059 -2.95660 6804 ft 259 kts 39°
2026-05-04 09:46 55.85393 -2.93517 6544 ft 258 kts 39°
2026-05-04 09:47 55.86723 -2.91378 6260 ft 257 kts 39°
2026-05-04 09:47 55.88032 -2.89275 6003 ft 256 kts 39°
2026-05-04 09:49 55.97373 -2.75127 4558 ft 243 kts 12°
2026-05-04 09:49 55.99017 -2.75100 4516 ft 237 kts 340°
2026-05-04 09:49 56.00411 -2.76592 4477 ft 236 kts 310°
2026-05-04 09:51 56.05610 -2.91366 3971 ft 222 kts 299°
2026-05-04 09:51 56.06398 -2.93682 3898 ft 213 kts 299°
2026-05-04 09:51 56.07153 -2.95915 3808 ft 208 kts 296°
2026-05-04 09:51 56.07391 -2.98387 3726 ft 205 kts 256°
2026-05-04 09:52 56.06892 -3.00728 3660 ft 201 kts 248°
2026-05-04 09:52 56.06328 -3.03039 3562 ft 203 kts 248°
2026-05-04 09:52 56.05744 -3.05339 3447 ft 200 kts 244°
2026-05-04 09:52 56.05101 -3.07453 3416 ft 188 kts 241°
2026-05-04 09:53 56.04439 -3.09448 3357 ft 187 kts 240°
2026-05-04 09:53 56.03783 -3.11384 3294 ft 182 kts 240°
2026-05-04 09:53 56.03123 -3.13319 3055 ft 181 kts 240°
2026-05-04 09:53 56.02472 -3.15230 2808 ft 178 kts 240°
2026-05-04 09:54 56.01836 -3.17099 2575 ft 174 kts 240°
2026-05-04 09:54 56.01216 -3.18922 2336 ft 168 kts 240°
2026-05-04 09:54 56.00628 -3.20651 2109 ft 158 kts 239°
2026-05-04 09:54 56.00068 -3.22298 1913 ft 153 kts 240°
2026-05-04 09:55 55.99515 -3.23925 1682 ft 151 kts 240°
2026-05-04 09:55 55.98976 -3.25513 1478 ft 148 kts 240°
2026-05-04 09:55 55.98442 -3.27087 1279 ft 146 kts 241°
2026-05-04 09:55 55.97934 -3.28582 1079 ft 137 kts 241°
2026-05-04 09:56 55.97456 -3.29991 889 ft 129 kts 241°
2026-05-04 09:56 55.96988 -3.31376 701 ft 135 kts 240°
2026-05-04 09:56 55.96503 -3.32807 535 ft 140 kts 240°
2026-05-04 09:56 55.95992 -3.34313 320 ft 137 kts 240°
2026-05-04 09:57 55.95506 -3.35751 127 ft 134 kts 240°
2026-05-04 09:57 55.95078 -3.37016 106 ft 101 kts 239°
2026-05-04 09:57 55.94793 -3.37862 109 ft 58 kts 239°
2026-05-04 09:57 55.94707 -3.38062 108 ft 9 kts 175°
2026-05-04 09:58 55.94654 -3.38015 106 ft 6 kts 147°
2026-05-04 09:58 55.94615 -3.37973 106 ft 7 kts 149°
2026-05-04 09:58 55.94595 -3.37948 106 ft 0 kts 136°
2026-05-04 10:00 55.94620 -3.37794 106 ft 7 kts 57°
2026-05-04 10:00 55.94658 -3.37687 106 ft 11 kts 58°
2026-05-04 10:02 55.94911 -3.36707 106 ft 11 kts 60°
2026-05-04 10:04 55.94920 -3.36430 106 ft 0 kts 149°